Flag for U.S.A. Weather past 2 weeks in New Orleans, Louisiana, U.S.A.

Now
87 °F

Sunny.


Feels Like: 91 °F
Forecast: 74 / 87 °F
Wind: 7 mph from Northeast

Location: Lakefront Airport

Current Time: Sep 21, 2014 at 3:47:38 PM

Latest Report: Sep 21, 2014 at 2:53 PM


Visibility: 10 mi

Pressure: 29.97 "Hg

Humidity: 55%

Dew point: 69 °F

Location of New OrleansLocation

Historic Weather in New Orleans — Graph

°F

New Orleans temperature yesterday

Maximum temperature yesterday: 86 °F (at 1:53 PM)
Minimum temperature yesterday: 78 °F (at 4:53 AM)
Average temperature yesterday: 81 °F

Past Weeks' High & Low Weather Summary

 TemperatureHumidityPressure
High91 °F (Sep 9, 2:53 PM)91% (Sep 19, 1:53 AM)30.11 "Hg (Sep 19, 1:53 AM)
Low73 °F (Sep 14, 7:53 AM)50% (Sep 6, 4:53 PM)29.85 "Hg (Sep 18, 3:53 PM)
Average82 °F76%29.97 "Hg
* Reported Sep 6 1:53 PM — Sep 21 1:53 PM, New Orleans, Weather by CustomWeather, © 2014

Note: Actual official high and low records may vary slightly from our data, if they occured in-between our weather recording intervals... More about our weather records

Advertising

New Orleans weather history for previous 24 hours

 ConditionsComfort  
Time TempWeatherWind HumidityBarometerVisibility
1:53 PM
Sep 21
87 °FSunny.10 mph55%29.99 "Hg10 mi
12:53 PM86 °FSunny.9 mph57%30.01 "Hg10 mi
11:53 AM84 °FSunny.12 mph63%30.02 "Hg10 mi
10:53 AM82 °FSunny.9 mph70%30.02 "Hg10 mi
9:53 AM81 °FSunny.12 mph69%30.02 "Hg10 mi
8:53 AM78 °FSunny.14 mph76%30.01 "Hg10 mi
7:53 AM77 °FSunny.14 mph79%30.00 "Hg10 mi
6:53 AM76 °FClear.14 mph80%29.99 "Hg10 mi
5:53 AM77 °FClear.12 mph77%29.98 "Hg10 mi
4:53 AM76 °FClear.14 mph82%29.96 "Hg10 mi
3:53 AM77 °FClear.14 mph79%29.95 "Hg10 mi
2:53 AM78 °FClear.14 mph79%29.95 "Hg10 mi
1:53 AM80 °FClear.13 mph71%29.95 "Hg10 mi
12:53 AM79 °FClear.9 mph74%29.96 "Hg10 mi
11:53 PM
Sep 20
80 °FClear.10 mph69%29.96 "Hg10 mi
10:53 PM80 °FClear.9 mph71%29.97 "Hg10 mi
9:53 PM80 °FClear.8 mph74%29.97 "Hg10 mi
8:53 PM80 °FClear.9 mph76%29.96 "Hg10 mi
7:53 PM81 °FSunny.9 mph72%29.93 "Hg10 mi
6:53 PM82 °FSunny.13 mph67%29.92 "Hg10 mi
5:53 PM83 °FSunny.14 mph65%29.91 "Hg10 mi
4:53 PM85 °FSunny.12 mph59%29.91 "Hg10 mi
3:53 PM86 °FSunny.14 mph53%29.93 "Hg10 mi
Weather by CustomWeather, © 2014

See weather overviewHow to use our weather pages